This is the latest recevied weather packets stored in our database for station/object 9W2CHF-3. If no packets are shown the sender has not sent any weather packets the latest 10 day(s).
| Time | Temp. | Humidity | Pressure | Rain* | Wind** | Luminosity | Snow |
|---|---|---|---|---|---|---|---|
| 1777660015 | 27.78° C | 100% | 1010.4 hPa | - | - | - | - |
| 1777658815 | 28.33° C | 100% | 1010.7 hPa | - | - | - | - |
| 1777657614 | 28.89° C | 100% | 1010.6 hPa | - | - | - | - |
| 1777656414 | 27.78° C | 100% | 1010.9 hPa | - | - | - | - |
| 1777655214 | 28.89° C | 99% | 1011.1 hPa | - | - | - | - |
| 1777654014 | 28.33° C | 100% | 1011.6 hPa | - | - | - | - |
| 1777652814 | 28.89° C | 100% | 1011.8 hPa | - | - | - | - |
| 1777651614 | 28.89° C | 100% | 1011.6 hPa | - | - | - | - |
| 1777650414 | 28.89° C | 100% | 1011.7 hPa | - | - | - | - |
| 1777649214 | 29.44° C | 99% | 1011.7 hPa | - | - | - | - |
| 1777648014 | 29.44° C | 100% | 1011.7 hPa | - | - | - | - |
| 1777646814 | 28.89° C | 100% | 1011.6 hPa | - | - | - | - |
| 1777645614 | 29.44° C | 100% | 1011.6 hPa | - | - | - | - |
| 1777644414 | 29.44° C | 100% | 1011.3 hPa | - | - | - | - |
| 1777643213 | 30° C | 99% | 1011.1 hPa | - | - | - | - |
| 1777642013 | 30.56° C | 94% | 1010.8 hPa | - | - | - | - |
| 1777640813 | 30.56° C | 97% | 1010.5 hPa | - | - | - | - |
| 1777639613 | 30.56° C | 94% | 1010.2 hPa | - | - | - | - |
| 1777638413 | 30.56° C | 93% | 1010.1 hPa | - | - | - | - |
| 1777637213 | 31.11° C | 87% | 1009.7 hPa | - | - | - | - |
| 1777636012 | 31.11° C | 85% | 1009.4 hPa | - | - | - | - |
| 1777634812 | 31.11° C | 82% | 1009.2 hPa | - | - | - | - |
| 1777633612 | 31.67° C | 86% | 1009.1 hPa | - | - | - | - |
| 1777632412 | 32.22° C | 78% | 1009 hPa | - | - | - | - |
| 1777631212 | 32.22° C | 79% | 1008.9 hPa | - | - | - | - |
* Rain since midnight (hover to see other rain measurements)
** Current wind speed in m/s (hover to see current wind gust speed)